Location: Gazon
(48.1318°N, 1.2708°W)
Time: 02:33:26
(UTC+00:00)

Meteor 1-22 Rocket - Pass Details

Date: 18 September 2020
Orbit: 786 x 941 km, 81.2° (Epoch: 29 October)

Event Time Altitude Azimuth Distance (km) Brightness Sun altitude
Exits shadow 20:43:06 61° 130° (SE) 1,021 4.2 -24.8°
Maximum altitude 20:43:43 65° 97° (E) 991 4.2 -24.9°
Drops below altitude 10° 20:49:41 10° 17° (NNE) 2,639 7.0 -25.7°
Sets 20:52:14 0° 14° (NNE) 3,600 7.7 -26.1°
